Time,TemperatureF,DewpointF,PressureIn,WindDirection,WindDirectionDegrees,WindSpeedMPH,WindSpeedGustMPH,Humidity,HourlyPrecipIn,Conditions,Clouds,dailyrainin,SoftwareType,DateUTC
2013-03-10 00:01:00,41.5,36.7,30.28,NNE,15,3.5,3.5,83,0.00,CLR,,0.00,WeatherDisplay:10.37,2013-03-10 08:01:00,
2013-03-10 00:06:00,41.1,36.6,30.28,NNE,15,3.5,3.5,84,0.00,CLR,,0.00,WeatherDisplay:10.37,2013-03-10 08:06:00,
2013-03-10 00:11:00,40.9,36.4,30.28,NNE,17,3.5,3.5,84,0.00,CLR,,0.00,WeatherDisplay:10.37,2013-03-10 08:11:00,
2013-03-10 00:16:00,40.8,36.3,30.28,NNE,17,3.5,3.5,84,0.00,CLR,,0.00,WeatherDisplay:10.37,2013-03-10 08:16:00,
2013-03-10 00:21:00,40.9,36.7,30.28,North,11,4.0,4.0,85,0.00,CLR,,0.00,WeatherDisplay:10.37,2013-03-10 08:21:00,
2013-03-10 00:26:00,41.1,36.3,30.28,North,11,3.5,3.5,83,0.00,CLR,,0.00,WeatherDisplay:10.37,2013-03-10 08:26:00,
2013-03-10 00:31:00,40.5,36.0,30.29,North,11,3.5,3.5,84,0.00,CLR,,0.00,WeatherDisplay:10.37,2013-03-10 08:31:00,
2013-03-10 00:36:00,40.8,36.6,30.28,North,11,3.5,3.5,85,0.00,CLR,,0.00,WeatherDisplay:10.37,2013-03-10 08:36:00,
2013-03-10 00:41:00,40.6,36.4,30.29,North,11,0.0,0.0,85,0.00,CLR,,0.00,WeatherDisplay:10.37,2013-03-10 08:41:00,
2013-03-10 00:46:00,39.9,35.8,30.29,North,11,2.3,2.3,85,0.00,CLR,,0.00,WeatherDisplay:10.37,2013-03-10 08:46:00,
2013-03-10 00:51:00,39.8,36.0,30.29,North,11,2.3,2.3,86,0.00,CLR,,0.00,WeatherDisplay:10.37,2013-03-10 08:51:00,
2013-03-10 00:56:00,39.4,35.6,30.29,North,11,0.0,0.0,86,0.00,CLR,,0.00,WeatherDisplay:10.37,2013-03-10 08:56:00,
2013-03-10 01:01:00,39.4,35.9,30.29,North,11,3.5,3.5,87,0.00,CLR,,0.00,WeatherDisplay:10.37,2013-03-10 09:01:00,
2013-03-10 01:06:00,39.4,35.9,30.29,NNE,12,3.5,3.5,87,0.00,CLR,,0.00,WeatherDisplay:10.37,2013-03-10 09:06:00,
2013-03-10 01:11:00,39.4,35.9,30.29,NNE,16,4.6,4.6,87,0.00,CLR,,0.00,WeatherDisplay:10.37,2013-03-10 09:11:00,
2013-03-10 01:16:00,39.2,35.7,30.29,NNE,17,4.6,4.6,87,0.00,CLR,,0.00,WeatherDisplay:10.37,2013-03-10 09:16:00,
2013-03-10 01:21:00,39.1,35.6,30.29,NNE,19,3.5,4.1,87,0.00,CLR,,0.00,WeatherDisplay:10.37,2013-03-10 09:21:00,
2013-03-10 01:26:00,38.9,35.4,30.29,NNE,22,4.6,4.6,87,0.00,CLR,,0.00,WeatherDisplay:10.37,2013-03-10 09:26:00,
2013-03-10 01:31:00,38.9,35.6,30.29,NNE,22,3.5,3.5,88,0.00,CLR,,0.00,WeatherDisplay:10.37,2013-03-10 09:31:00,
2013-03-10 01:36:00,38.8,35.6,30.29,NNE,22,4.0,4.0,88,0.00,CLR,,0.00,WeatherDisplay:10.37,2013-03-10 09:36:00,
2013-03-10 01:41:00,38.6,35.4,30.29,NNE,18,3.5,3.5,88,0.00,CLR,,0.00,WeatherDisplay:10.37,2013-03-10 09:41:00,
2013-03-10 01:46:00,38.8,35.6,30.29,NNE,18,3.5,3.5,88,0.00,CLR,,0.00,WeatherDisplay:10.37,2013-03-10 09:46:00,
2013-03-10 01:51:00,39.1,36.1,30.30,NNE,18,3.5,3.5,89,0.00,CLR,,0.00,WeatherDisplay:10.37,2013-03-10 09:51:00,
2013-03-10 01:56:00,38.3,34.8,30.30,NNE,18,0.0,0.0,87,0.00,CLR,,0.00,WeatherDisplay:10.37,2013-03-10 09:56:00,
2013-03-10 03:01:00,38.3,35.3,30.29,NNE,18,2.3,2.3,89,0.00,CLR,,0.00,WeatherDisplay:10.37,2013-03-10 10:01:00,
2013-03-10 03:06:00,38.0,34.8,30.30,NNE,18,3.5,3.5,88,0.00,CLR,,0.00,WeatherDisplay:10.37,2013-03-10 10:06:00,
2013-03-10 03:11:00,38.1,35.1,30.30,NNE,18,4.0,4.0,89,0.00,CLR,,0.00,WeatherDisplay:10.37,2013-03-10 10:11:00,
2013-03-10 03:16:00,38.0,35.0,30.29,NNE,21,4.6,4.6,89,0.00,CLR,,0.00,WeatherDisplay:10.37,2013-03-10 10:16:00,
2013-03-10 03:21:00,38.2,35.2,30.29,NNE,21,4.0,4.0,89,0.00,CLR,,0.00,WeatherDisplay:10.37,2013-03-10 10:21:00,
2013-03-10 03:26:00,38.1,35.1,30.29,NNE,24,3.5,3.5,89,0.00,CLR,,0.00,WeatherDisplay:10.37,2013-03-10 10:26:00,
2013-03-10 03:31:00,37.7,34.8,30.28,NNE,24,4.0,4.0,89,0.00,CLR,,0.00,WeatherDisplay:10.37,2013-03-10 10:31:00,
2013-03-10 03:36:00,37.3,34.4,30.28,NE,52,3.5,3.5,89,0.00,CLR,,0.00,WeatherDisplay:10.37,2013-03-10 10:36:00,
2013-03-10 03:41:00,37.5,34.8,30.28,ENE,65,3.5,3.5,90,0.00,CLR,,0.00,WeatherDisplay:10.37,2013-03-10 10:41:00,
2013-03-10 03:46:00,38.4,35.7,30.29,ENE,59,3.5,3.5,90,0.00,CLR,,0.00,WeatherDisplay:10.37,2013-03-10 10:46:00,
2013-03-10 03:51:00,38.6,35.6,30.29,ENE,59,3.5,3.5,89,0.00,CLR,,0.00,WeatherDisplay:10.37,2013-03-10 10:51:00,
2013-03-10 03:56:00,38.2,35.0,30.29,ENE,59,2.3,2.3,88,0.00,CLR,,0.00,WeatherDisplay:10.37,2013-03-10 10:56:00,
2013-03-10 04:01:00,37.6,34.4,30.28,ENE,59,2.3,2.3,88,0.00,CLR,,0.00,WeatherDisplay:10.37,2013-03-10 11:01:00,
2013-03-10 04:06:00,37.2,34.3,30.29,ENE,59,2.3,2.3,89,0.00,CLR,,0.00,WeatherDisplay:10.37,2013-03-10 11:06:00,
2013-03-10 04:11:00,37.0,34.1,30.28,ENE,59,4.0,4.0,89,0.00,CLR,,0.00,WeatherDisplay:10.37,2013-03-10 11:11:00,
2013-03-10 04:16:00,37.0,34.3,30.28,NE,51,4.0,4.0,90,0.00,CLR,,0.00,WeatherDisplay:10.37,2013-03-10 11:16:00,
2013-03-10 04:21:00,37.4,34.7,30.28,NE,38,4.6,4.6,90,0.00,CLR,,0.00,WeatherDisplay:10.37,2013-03-10 11:21:00,
2013-03-10 04:26:00,37.7,35.0,30.29,North,351,6.0,6.0,90,0.00,CLR,,0.00,WeatherDisplay:10.37,2013-03-10 11:26:00,
2013-03-10 04:31:00,38.0,35.3,30.29,North,355,6.9,6.9,90,0.00,CLR,,0.00,WeatherDisplay:10.37,2013-03-10 11:31:00,
2013-03-10 04:36:00,37.7,34.8,30.29,North,349,5.8,5.8,89,0.00,CLR,,0.00,WeatherDisplay:10.37,2013-03-10 11:36:00,
2013-03-10 04:41:00,37.2,34.3,30.30,North,349,2.3,2.3,89,0.00,CLR,,0.00,WeatherDisplay:10.37,2013-03-10 11:41:00,
2013-03-10 04:46:00,36.6,33.7,30.30,North,349,4.0,4.0,89,0.00,CLR,,0.00,WeatherDisplay:10.37,2013-03-10 11:46:00,
2013-03-10 04:51:00,36.3,33.4,30.30,NNW,346,3.5,3.5,89,0.00,CLR,,0.00,WeatherDisplay:10.37,2013-03-10 11:51:00,
2013-03-10 04:56:00,36.2,33.5,30.30,SSE,153,4.6,4.6,90,0.00,CLR,,0.00,WeatherDisplay:10.37,2013-03-10 11:56:00,
2013-03-10 05:01:00,36.1,33.5,30.30,SSE,153,3.5,3.5,90,0.00,CLR,,0.00,WeatherDisplay:10.37,2013-03-10 12:01:00,
2013-03-10 05:06:00,36.2,33.5,30.30,SSE,153,0.0,0.0,90,0.00,CLR,,0.00,WeatherDisplay:10.37,2013-03-10 12:06:00,
2013-03-10 05:11:00,36.1,33.5,30.30,SSE,153,2.3,2.3,90,0.00,CLR,,0.00,WeatherDisplay:10.37,2013-03-10 12:11:00,
2013-03-10 05:16:00,36.4,34.0,30.29,SSE,153,0.0,0.0,91,0.00,CLR,,0.00,WeatherDisplay:10.37,2013-03-10 12:16:00,
2013-03-10 05:21:00,36.3,33.9,30.30,SSE,153,2.3,2.3,91,0.00,CLR,,0.00,WeatherDisplay:10.37,2013-03-10 12:21:00,
2013-03-10 05:26:00,36.0,33.4,30.29,SSE,153,0.0,0.0,90,0.00,CLR,,0.00,WeatherDisplay:10.37,2013-03-10 12:26:00,
2013-03-10 05:31:00,35.4,32.8,30.30,SSE,153,2.3,2.3,90,0.00,CLR,,0.00,WeatherDisplay:10.37,2013-03-10 12:31:00,
2013-03-10 05:36:00,35.7,33.3,30.30,SSE,153,0.0,0.0,91,0.00,CLR,,0.00,WeatherDisplay:10.37,2013-03-10 12:36:00,
2013-03-10 05:41:00,35.9,33.5,30.30,SSE,153,0.0,0.0,91,0.00,CLR,,0.00,WeatherDisplay:10.37,2013-03-10 12:41:00,
2013-03-10 05:46:00,36.0,33.6,30.30,SSE,153,0.0,0.0,91,0.00,CLR,,0.00,WeatherDisplay:10.37,2013-03-10 12:46:00,
2013-03-10 05:51:00,36.3,33.9,30.30,SSE,153,2.3,2.3,91,0.00,CLR,,0.00,WeatherDisplay:10.37,2013-03-10 12:51:00,
2013-03-10 05:56:00,36.3,33.9,30.30,SSE,153,3.5,3.5,91,0.00,CLR,,0.00,WeatherDisplay:10.37,2013-03-10 12:56:00,
2013-03-10 06:01:00,35.6,33.2,30.31,WSW,252,3.5,3.5,91,0.00,CLR,,0.00,WeatherDisplay:10.37,2013-03-10 13:01:00,
2013-03-10 06:06:00,35.1,32.7,30.31,WSW,252,3.5,3.5,91,0.00,CLR,,0.00,WeatherDisplay:10.37,2013-03-10 13:06:00,
2013-03-10 06:11:00,35.0,32.6,30.31,WSW,252,2.3,2.3,91,0.00,CLR,,0.00,WeatherDisplay:10.37,2013-03-10 13:11:00,
2013-03-10 06:16:00,35.0,32.6,30.31,WSW,252,0.0,0.0,91,0.00,CLR,,0.00,WeatherDisplay:10.37,2013-03-10 13:16:00,
2013-03-10 06:21:00,35.1,33.0,30.31,WSW,252,3.5,3.5,92,0.00,CLR,,0.00,WeatherDisplay:10.37,2013-03-10 13:21:00,
2013-03-10 06:26:00,35.3,33.2,30.31,WSW,252,3.5,3.5,92,0.00,CLR,,0.00,WeatherDisplay:10.37,2013-03-10 13:26:00,
2013-03-10 06:31:00,35.1,33.0,30.31,NNW,333,3.5,3.5,92,0.00,CLR,,0.00,WeatherDisplay:10.37,2013-03-10 13:31:00,
2013-03-10 06:36:00,35.6,33.5,30.31,NNW,333,3.5,3.5,92,0.00,CLR,,0.00,WeatherDisplay:10.37,2013-03-10 13:36:00,
2013-03-10 06:41:00,34.9,32.5,30.31,NNW,333,0.0,0.0,91,0.00,CLR,,0.00,WeatherDisplay:10.37,2013-03-10 13:41:00,
2013-03-10 06:46:00,34.2,31.8,30.31,NNW,333,0.0,0.0,91,0.00,CLR,,0.00,WeatherDisplay:10.37,2013-03-10 13:46:00,
2013-03-10 06:51:00,34.3,32.2,30.31,NNW,333,3.5,3.5,92,0.00,CLR,,0.00,WeatherDisplay:10.37,2013-03-10 13:51:00,
2013-03-10 06:56:00,34.3,32.2,30.31,NNW,333,2.0,2.0,92,0.00,CLR,,0.00,WeatherDisplay:10.37,2013-03-10 13:56:00,
2013-03-10 07:01:00,34.8,33.0,30.32,NNW,333,3.5,3.5,93,0.00,CLR,,0.00,WeatherDisplay:10.37,2013-03-10 14:01:00,
2013-03-10 07:06:00,34.8,32.7,30.31,NNW,333,2.3,2.3,92,0.00,CLR,,0.00,WeatherDisplay:10.37,2013-03-10 14:06:00,
2013-03-10 07:11:00,34.3,32.2,30.32,NNW,334,2.3,2.3,92,0.00,CLR,,0.00,WeatherDisplay:10.37,2013-03-10 14:11:00,
2013-03-10 07:16:00,33.9,31.8,30.32,NNW,334,1.0,0.0,92,0.00,CLR,,0.00,WeatherDisplay:10.37,2013-03-10 14:16:00,
2013-03-10 07:21:00,34.0,31.9,30.32,NNW,334,3.5,3.5,92,0.00,CLR,,0.00,WeatherDisplay:10.37,2013-03-10 14:21:00,
2013-03-10 07:26:00,33.9,31.8,30.32,NNW,334,0.0,0.0,92,0.00,CLR,,0.00,WeatherDisplay:10.37,2013-03-10 14:26:00,
2013-03-10 07:31:00,34.2,32.4,30.33,NNW,334,0.0,0.0,93,0.00,CLR,,0.00,WeatherDisplay:10.37,2013-03-10 14:31:00,
2013-03-10 07:36:00,34.2,32.4,30.33,NNW,334,3.5,3.5,93,0.00,CLR,,0.00,WeatherDisplay:10.37,2013-03-10 14:36:00,
2013-03-10 07:41:00,33.9,32.1,30.33,North,355,3.5,3.5,93,0.00,CLR,,0.00,WeatherDisplay:10.37,2013-03-10 14:41:00,
2013-03-10 07:46:00,34.3,32.5,30.33,NNE,24,3.5,3.5,93,0.00,CLR,,0.00,WeatherDisplay:10.37,2013-03-10 14:46:00,
2013-03-10 07:51:00,35.3,33.5,30.33,NNE,24,3.5,3.5,93,0.00,CLR,,0.00,WeatherDisplay:10.37,2013-03-10 14:51:00,
2013-03-10 07:56:00,36.1,34.5,30.33,NNE,24,3.5,3.5,94,0.00,CLR,,0.00,WeatherDisplay:10.37,2013-03-10 14:56:00,
2013-03-10 08:01:00,36.4,34.6,30.33,NNE,23,3.5,3.5,93,0.00,CLR,,0.00,WeatherDisplay:10.37,2013-03-10 15:01:00,
2013-03-10 08:06:00,37.2,35.6,30.33,NNE,24,2.3,2.3,94,0.00,CLR,,0.00,WeatherDisplay:10.37,2013-03-10 15:06:00,
2013-03-10 08:11:00,37.7,35.9,30.33,NNE,24,1.1,1.1,93,0.00,CLR,,0.00,WeatherDisplay:10.37,2013-03-10 15:11:00,
2013-03-10 08:16:00,38.1,36.3,30.33,NNE,24,0.0,0.0,93,0.00,CLR,,0.00,WeatherDisplay:10.37,2013-03-10 15:16:00,
2013-03-10 08:21:00,38.9,36.8,30.33,NNE,24,0.0,0.0,92,0.00,CLR,,0.00,WeatherDisplay:10.37,2013-03-10 15:21:00,
2013-03-10 08:26:00,39.8,37.7,30.33,NNE,24,0.0,0.0,92,0.00,CLR,,0.00,WeatherDisplay:10.37,2013-03-10 15:26:00,
2013-03-10 08:31:00,40.0,37.6,30.34,NNE,24,0.0,0.0,91,0.00,CLR,,0.00,WeatherDisplay:10.37,2013-03-10 15:31:00,
2013-03-10 08:36:00,41.0,38.6,30.34,NNE,24,1.1,1.1,91,0.00,CLR,,0.00,WeatherDisplay:10.37,2013-03-10 15:36:00,
2013-03-10 08:41:00,42.0,39.3,30.34,West,281,3.5,3.5,90,0.00,CLR,,0.00,WeatherDisplay:10.37,2013-03-10 15:41:00,
2013-03-10 08:46:00,42.4,39.7,30.35,West,281,3.5,3.5,90,0.00,CLR,,0.00,WeatherDisplay:10.37,2013-03-10 15:46:00,
2013-03-10 08:51:00,43.0,40.0,30.35,West,281,3.5,3.5,89,0.00,CLR,,0.00,WeatherDisplay:10.37,2013-03-10 15:51:00,
2013-03-10 08:56:00,43.4,40.1,30.35,West,265,4.6,4.6,88,0.00,CLR,,0.00,WeatherDisplay:10.37,2013-03-10 15:56:00,
2013-03-10 09:01:00,44.1,40.8,30.35,WSW,238,3.5,3.5,88,0.00,CLR,,0.00,WeatherDisplay:10.37,2013-03-10 16:01:00,
2013-03-10 09:06:00,44.6,41.0,30.35,South,188,5.8,5.8,87,0.00,CLR,,0.00,WeatherDisplay:10.37,2013-03-10 16:06:00,
2013-03-10 09:11:00,44.9,41.0,30.35,South,187,4.6,4.6,86,0.00,CLR,,0.00,WeatherDisplay:10.37,2013-03-10 16:11:00,
2013-03-10 09:16:00,44.8,40.9,30.35,SSW,201,5.0,5.0,86,0.00,CLR,,0.00,WeatherDisplay:10.37,2013-03-10 16:16:00,
2013-03-10 09:21:00,45.0,40.5,30.35,SSW,202,3.5,3.5,84,0.00,CLR,,0.00,WeatherDisplay:10.37,2013-03-10 16:21:00,
2013-03-10 09:26:00,44.6,40.1,30.35,SSW,202,1.1,1.1,84,0.00,CLR,,0.00,WeatherDisplay:10.37,2013-03-10 16:26:00,
2013-03-10 09:31:00,45.7,40.8,30.35,SSW,202,5.0,5.0,83,0.00,CLR,,0.00,WeatherDisplay:10.37,2013-03-10 16:31:00,
2013-03-10 09:36:00,46.8,41.6,30.35,SW,229,3.5,3.5,82,0.00,CLR,,0.00,WeatherDisplay:10.37,2013-03-10 16:36:00,
2013-03-10 09:41:00,47.2,42.0,30.35,WNW,283,1.1,0.0,82,0.00,CLR,,0.00,WeatherDisplay:10.37,2013-03-10 16:41:00,
2013-03-10 09:46:00,48.3,42.7,30.35,WSW,254,3.5,3.5,81,0.00,CLR,,0.00,WeatherDisplay:10.37,2013-03-10 16:46:00,
2013-03-10 09:51:00,49.2,43.3,30.35,WSW,247,4.6,4.6,80,0.00,CLR,,0.00,WeatherDisplay:10.37,2013-03-10 16:51:00,
2013-03-10 09:56:00,49.9,43.6,30.35,WSW,247,3.5,3.5,79,0.00,CLR,,0.00,WeatherDisplay:10.37,2013-03-10 16:56:00,
2013-03-10 10:01:00,50.5,44.2,30.35,WSW,243,4.6,4.6,79,0.00,CLR,,0.00,WeatherDisplay:10.37,2013-03-10 17:01:00,
2013-03-10 10:06:00,51.0,43.0,30.35,WSW,243,0.0,0.0,74,0.00,CLR,,0.00,WeatherDisplay:10.37,2013-03-10 17:06:00,
2013-03-10 10:11:00,51.4,43.4,30.35,WSW,243,2.0,2.0,74,0.00,CLR,,0.00,WeatherDisplay:10.37,2013-03-10 17:11:00,
2013-03-10 10:16:00,52.1,42.6,30.35,WSW,243,2.3,2.3,70,0.00,CLR,,0.00,WeatherDisplay:10.37,2013-03-10 17:16:00,
2013-03-10 10:21:00,53.6,44.4,30.35,WSW,242,2.0,2.0,71,0.00,CLR,,0.00,WeatherDisplay:10.37,2013-03-10 17:21:00,
2013-03-10 10:26:00,53.8,42.3,30.35,WSW,244,3.5,3.5,65,0.00,CLR,,0.00,WeatherDisplay:10.37,2013-03-10 17:26:00,
2013-03-10 10:31:00,54.2,43.1,30.35,WSW,250,1.1,1.1,66,0.00,CLR,,0.00,WeatherDisplay:10.37,2013-03-10 17:31:00,
2013-03-10 10:36:00,55.3,43.3,30.35,WSW,250,4.0,4.0,64,0.00,CLR,,0.00,WeatherDisplay:10.37,2013-03-10 17:36:00,
2013-03-10 10:41:00,55.7,43.3,30.35,SW,231,3.5,3.5,63,0.00,CLR,,0.00,WeatherDisplay:10.37,2013-03-10 17:41:00,
2013-03-10 10:46:00,56.0,44.0,30.35,WSW,240,3.5,3.5,64,0.00,CLR,,0.00,WeatherDisplay:10.37,2013-03-10 17:46:00,
2013-03-10 10:51:00,56.6,42.9,30.35,WSW,240,2.3,2.3,60,0.00,CLR,,0.00,WeatherDisplay:10.37,2013-03-10 17:51:00,
2013-03-10 10:56:00,56.6,44.1,30.35,WSW,240,3.5,3.5,63,0.00,CLR,,0.00,WeatherDisplay:10.37,2013-03-10 17:56:00,
2013-03-10 11:01:00,57.5,45.0,30.34,WSW,238,2.3,2.3,63,0.00,CLR,,0.00,WeatherDisplay:10.37,2013-03-10 18:01:00,
2013-03-10 11:06:00,58.3,44.9,30.34,WSW,238,3.5,3.5,61,0.00,CLR,,0.00,WeatherDisplay:10.37,2013-03-10 18:06:00,
2013-03-10 11:11:00,58.7,45.7,30.34,SSW,205,5.8,5.8,62,0.00,CLR,,0.00,WeatherDisplay:10.37,2013-03-10 18:11:00,
2013-03-10 11:16:00,59.3,45.8,30.34,SSW,204,3.5,3.5,61,0.00,CLR,,0.00,WeatherDisplay:10.37,2013-03-10 18:16:00,
2013-03-10 11:21:00,59.7,45.3,30.34,WSW,254,2.3,2.3,59,0.00,CLR,,0.00,WeatherDisplay:10.37,2013-03-10 18:21:00,
2013-03-10 11:26:00,59.8,46.3,30.34,WSW,254,2.3,2.3,61,0.00,CLR,,0.00,WeatherDisplay:10.37,2013-03-10 18:26:00,
2013-03-10 11:31:00,61.2,46.3,30.34,SW,224,3.5,3.5,58,0.00,CLR,,0.00,WeatherDisplay:10.37,2013-03-10 18:31:00,
2013-03-10 11:36:00,61.0,44.7,30.34,South,184,1.1,1.1,55,0.00,CLR,,0.00,WeatherDisplay:10.37,2013-03-10 18:36:00,
2013-03-10 11:41:00,61.2,45.4,30.34,WSW,249,4.6,4.6,56,0.00,CLR,,0.00,WeatherDisplay:10.37,2013-03-10 18:41:00,
2013-03-10 11:46:00,61.8,47.3,30.34,SW,223,5.0,5.0,59,0.00,CLR,,0.00,WeatherDisplay:10.37,2013-03-10 18:46:00,
2013-03-10 11:51:00,61.3,44.5,30.34,SW,223,1.1,0.0,54,0.00,CLR,,0.00,WeatherDisplay:10.37,2013-03-10 18:51:00,
2013-03-10 11:56:00,61.7,44.4,30.33,SW,229,3.0,3.0,53,0.00,CLR,,0.00,WeatherDisplay:10.37,2013-03-10 18:56:00,
2013-03-10 12:01:00,62.7,46.3,30.33,WSW,246,3.5,3.5,55,0.00,CLR,,0.00,WeatherDisplay:10.37,2013-03-10 19:01:00,
2013-03-10 12:06:00,63.3,46.4,30.33,WSW,248,3.5,3.5,54,0.00,CLR,,0.00,WeatherDisplay:10.37,2013-03-10 19:06:00,
2013-03-10 12:11:00,63.6,46.6,30.32,South,187,1.1,1.1,54,0.00,CLR,,0.00,WeatherDisplay:10.37,2013-03-10 19:11:00,
2013-03-10 12:16:00,64.0,46.5,30.32,South,188,2.3,0.0,53,0.00,CLR,,0.00,WeatherDisplay:10.37,2013-03-10 19:16:00,
2013-03-10 12:21:00,65.1,48.5,30.32,WSW,254,6.9,6.9,55,0.00,CLR,,0.00,WeatherDisplay:10.37,2013-03-10 19:21:00,
2013-03-10 12:26:00,65.9,48.8,30.32,SW,229,4.6,4.6,54,0.00,CLR,,0.00,WeatherDisplay:10.37,2013-03-10 19:26:00,
2013-03-10 12:31:00,65.6,48.0,30.32,SW,231,5.8,5.8,53,0.00,CLR,,0.00,WeatherDisplay:10.37,2013-03-10 19:31:00,
2013-03-10 12:36:00,65.1,46.0,30.31,WSW,252,3.5,3.5,50,0.00,CLR,,0.00,WeatherDisplay:10.37,2013-03-10 19:36:00,
2013-03-10 12:41:00,66.0,48.4,30.30,West,273,3.5,3.5,53,0.00,CLR,,0.00,WeatherDisplay:10.37,2013-03-10 19:41:00,
2013-03-10 12:46:00,66.5,46.2,30.30,South,186,3.5,3.5,48,0.00,CLR,,0.00,WeatherDisplay:10.37,2013-03-10 19:46:00,
2013-03-10 12:51:00,66.0,47.3,30.30,SSW,192,5.8,5.8,51,0.00,CLR,,0.00,WeatherDisplay:10.37,2013-03-10 19:51:00,
2013-03-10 12:56:00,66.2,47.0,30.29,South,186,3.5,3.5,50,0.00,CLR,,0.00,WeatherDisplay:10.37,2013-03-10 19:56:00,
2013-03-10 13:01:00,66.5,47.3,30.29,South,186,2.3,2.3,50,0.00,CLR,,0.00,WeatherDisplay:10.37,2013-03-10 20:01:00,
2013-03-10 13:07:00,67.3,47.5,30.29,WSW,249,6.9,6.9,49,0.00,CLR,,0.00,WeatherDisplay:10.37,2013-03-10 20:07:00,
2013-03-10 13:12:00,67.7,46.7,30.29,WSW,252,3.5,3.5,47,0.00,CLR,,0.00,WeatherDisplay:10.37,2013-03-10 20:12:00,
2013-03-10 13:17:00,67.5,46.6,30.28,WSW,241,3.5,3.5,47,0.00,CLR,,0.00,WeatherDisplay:10.37,2013-03-10 20:17:00,
2013-03-10 13:22:00,68.1,47.7,30.28,SSW,205,6.0,6.0,48,0.00,CLR,,0.00,WeatherDisplay:10.37,2013-03-10 20:22:00,
2013-03-10 13:28:00,69.9,48.7,30.27,SW,224,3.5,3.5,47,0.00,CLR,,0.00,WeatherDisplay:10.37,2013-03-10 20:28:00,
2013-03-10 13:33:00,70.3,49.7,30.27,WSW,239,6.9,6.9,48,0.00,CLR,,0.00,WeatherDisplay:10.37,2013-03-10 20:33:00,
2013-03-10 13:38:00,71.0,49.2,30.26,SW,222,5.8,5.8,46,0.00,CLR,,0.00,WeatherDisplay:10.37,2013-03-10 20:38:00,
2013-03-10 13:43:00,70.0,48.8,30.26,West,272,2.3,2.3,47,0.00,CLR,,0.00,WeatherDisplay:10.37,2013-03-10 20:43:00,
2013-03-10 13:48:00,70.5,46.3,30.26,South,184,6.9,6.9,42,0.00,CLR,,0.00,WeatherDisplay:10.37,2013-03-10 20:48:00,
2013-03-10 13:53:00,70.6,46.4,30.26,WSW,257,6.9,6.9,42,0.00,CLR,,0.00,WeatherDisplay:10.37,2013-03-10 20:53:00,
2013-03-10 13:58:00,70.3,44.8,30.26,WSW,244,4.6,4.6,40,0.00,CLR,,0.00,WeatherDisplay:10.37,2013-03-10 20:58:00,
2013-03-10 14:03:00,70.1,44.0,30.25,West,269,5.8,5.8,39,0.00,CLR,,0.00,WeatherDisplay:10.37,2013-03-10 21:03:00,
2013-03-10 14:08:00,70.2,46.6,30.25,SSW,199,9.2,9.2,43,0.00,CLR,,0.00,WeatherDisplay:10.37,2013-03-10 21:08:00,
2013-03-10 14:13:00,71.1,46.2,30.25,SSW,201,3.5,3.5,41,0.00,CLR,,0.00,WeatherDisplay:10.37,2013-03-10 21:13:00,
2013-03-10 14:18:00,70.4,47.4,30.24,WSW,251,10.4,10.4,44,0.00,CLR,,0.00,WeatherDisplay:10.37,2013-03-10 21:18:00,
2013-03-10 14:23:00,72.1,46.4,30.24,SSW,203,6.0,6.0,40,0.00,CLR,,0.00,WeatherDisplay:10.37,2013-03-10 21:23:00,
2013-03-10 14:28:00,71.7,45.4,30.24,South,173,3.5,3.5,39,0.00,CLR,,0.00,WeatherDisplay:10.37,2013-03-10 21:28:00,
2013-03-10 14:33:00,71.2,50.5,30.24,WSW,242,15.0,15.0,48,0.00,CLR,,0.00,WeatherDisplay:10.37,2013-03-10 21:33:00,
2013-03-10 14:38:00,71.4,50.1,30.24,West,264,12.7,12.7,47,0.00,CLR,,0.00,WeatherDisplay:10.37,2013-03-10 21:38:00,
2013-03-10 14:43:00,72.0,52.9,30.24,North,360,7.0,7.0,51,0.00,CLR,,0.00,WeatherDisplay:10.37,2013-03-10 21:43:00,
2013-03-10 14:48:00,71.6,51.4,30.23,West,269,12.7,12.7,49,0.00,CLR,,0.00,WeatherDisplay:10.37,2013-03-10 21:48:00,
2013-03-10 14:53:00,71.2,50.5,30.24,WSW,238,13.8,13.8,48,0.00,CLR,,0.00,WeatherDisplay:10.37,2013-03-10 21:53:00,
2013-03-10 14:58:00,71.0,52.0,30.23,WNW,282,11.5,11.5,51,0.00,CLR,,0.00,WeatherDisplay:10.37,2013-03-10 21:58:00,
2013-03-10 15:03:00,70.5,52.0,30.23,WNW,294,14.0,14.0,52,0.00,CLR,,0.00,WeatherDisplay:10.37,2013-03-10 22:03:00,
2013-03-10 15:08:00,71.0,53.5,30.23,WSW,252,16.1,16.1,54,0.00,CLR,,0.00,WeatherDisplay:10.37,2013-03-10 22:08:00,
2013-03-10 15:13:00,70.4,53.0,30.23,WSW,248,13.8,13.8,54,0.00,CLR,,0.00,WeatherDisplay:10.37,2013-03-10 22:13:00,
2013-03-10 15:18:00,70.8,54.3,30.23,WNW,286,10.4,10.4,56,0.00,CLR,,0.00,WeatherDisplay:10.37,2013-03-10 22:18:00,
2013-03-10 15:23:00,69.8,52.4,30.23,WNW,284,16.1,16.1,54,0.00,CLR,,0.00,WeatherDisplay:10.37,2013-03-10 22:23:00,
2013-03-10 15:28:00,69.5,53.6,30.23,West,265,10.4,10.4,57,0.00,CLR,,0.00,WeatherDisplay:10.37,2013-03-10 22:28:00,
2013-03-10 15:33:00,69.0,53.1,30.23,West,270,15.0,15.0,57,0.00,CLR,,0.00,WeatherDisplay:10.37,2013-03-10 22:33:00,
2013-03-10 15:38:00,69.1,52.7,30.23,WSW,252,12.7,12.7,56,0.00,CLR,,0.00,WeatherDisplay:10.37,2013-03-10 22:38:00,
2013-03-10 15:43:00,70.0,52.6,30.23,West,273,13.8,13.8,54,0.00,CLR,,0.00,WeatherDisplay:10.37,2013-03-10 22:43:00,
2013-03-10 15:48:00,69.9,52.5,30.23,West,271,9.2,9.2,54,0.00,CLR,,0.00,WeatherDisplay:10.37,2013-03-10 22:48:00,
2013-03-10 15:53:00,69.8,51.9,30.23,North,360,12.7,12.7,53,0.00,CLR,,0.00,WeatherDisplay:10.37,2013-03-10 22:53:00,
2013-03-10 15:58:00,69.1,51.2,30.23,West,278,13.8,13.8,53,0.00,CLR,,0.00,WeatherDisplay:10.37,2013-03-10 22:58:00,
2013-03-10 16:03:00,68.9,52.1,30.23,WSW,256,10.4,10.4,55,0.00,CLR,,0.00,WeatherDisplay:10.37,2013-03-10 23:03:00,
2013-03-10 16:08:00,68.1,51.8,30.23,NW,311,14.0,14.0,56,0.00,CLR,,0.00,WeatherDisplay:10.37,2013-03-10 23:08:00,
2013-03-10 16:13:00,67.1,52.3,30.23,WNW,289,10.4,10.4,59,0.00,CLR,,0.00,WeatherDisplay:10.37,2013-03-10 23:13:00,
2013-03-10 16:18:00,67.0,52.7,30.23,West,273,11.5,11.5,60,0.00,CLR,,0.00,WeatherDisplay:10.37,2013-03-10 23:18:00,
2013-03-10 16:23:00,66.8,52.9,30.23,WNW,297,11.5,11.5,61,0.00,CLR,,0.00,WeatherDisplay:10.37,2013-03-10 23:23:00,
2013-03-10 16:28:00,66.4,52.1,30.23,WNW,282,16.1,16.1,60,0.00,CLR,,0.00,WeatherDisplay:10.37,2013-03-10 23:28:00,
2013-03-10 16:33:00,65.5,51.7,30.23,West,268,15.0,15.0,61,0.00,CLR,,0.00,WeatherDisplay:10.37,2013-03-10 23:33:00,
2013-03-10 16:38:00,65.4,52.0,30.23,WNW,290,12.7,12.7,62,0.00,CLR,,0.00,WeatherDisplay:10.37,2013-03-10 23:38:00,
2013-03-10 16:43:00,65.6,52.2,30.23,West,281,11.5,11.5,62,0.00,CLR,,0.00,WeatherDisplay:10.37,2013-03-10 23:43:00,
2013-03-10 16:48:00,65.3,51.9,30.23,WNW,283,13.8,13.8,62,0.00,CLR,,0.00,WeatherDisplay:10.37,2013-03-10 23:48:00,
2013-03-10 16:53:00,64.9,52.0,30.23,West,271,12.7,12.7,63,0.00,CLR,,0.00,WeatherDisplay:10.37,2013-03-10 23:53:00,
2013-03-10 16:58:00,64.5,52.5,30.23,West,279,10.4,10.4,65,0.00,CLR,,0.00,WeatherDisplay:10.37,2013-03-10 23:58:00,
2013-03-10 17:03:00,64.5,52.0,30.23,WSW,249,13.8,13.8,64,0.00,CLR,,0.00,WeatherDisplay:10.37,2013-03-11 00:03:00,
2013-03-10 17:08:00,64.0,51.6,30.23,West,277,16.1,16.1,64,0.00,CLR,,0.00,WeatherDisplay:10.37,2013-03-11 00:08:00,
2013-03-10 17:13:00,64.0,51.6,30.23,SW,220,11.5,11.5,64,0.00,CLR,,0.00,WeatherDisplay:10.37,2013-03-11 00:13:00,
2013-03-10 17:18:00,63.6,51.6,30.23,WSW,244,11.5,11.5,65,0.00,CLR,,0.00,WeatherDisplay:10.37,2013-03-11 00:18:00,
2013-03-10 17:23:00,63.1,50.7,30.23,West,279,13.8,13.8,64,0.00,CLR,,0.00,WeatherDisplay:10.37,2013-03-11 00:23:00,
2013-03-10 17:28:00,62.9,51.0,30.23,West,279,11.5,11.5,65,0.00,CLR,,0.00,WeatherDisplay:10.37,2013-03-11 00:28:00,
2013-03-10 17:33:00,63.0,51.5,30.23,WSW,243,11.5,11.5,66,0.00,CLR,,0.00,WeatherDisplay:10.37,2013-03-11 00:33:00,
2013-03-10 17:38:00,62.4,50.9,30.23,North,360,11.5,11.5,66,0.00,CLR,,0.00,WeatherDisplay:10.37,2013-03-11 00:38:00,
2013-03-10 17:43:00,61.7,50.6,30.23,WSW,248,11.5,11.5,67,0.00,CLR,,0.00,WeatherDisplay:10.37,2013-03-11 00:43:00,
2013-03-10 17:48:00,61.4,50.3,30.23,West,259,10.4,10.4,67,0.00,CLR,,0.00,WeatherDisplay:10.37,2013-03-11 00:48:00,
2013-03-10 17:53:00,61.1,50.5,30.23,WSW,257,12.7,12.7,68,0.00,CLR,,0.00,WeatherDisplay:10.37,2013-03-11 00:53:00,
2013-03-10 17:58:00,60.7,50.1,30.23,West,277,11.5,11.5,68,0.00,CLR,,0.00,WeatherDisplay:10.37,2013-03-11 00:58:00,
2013-03-10 18:03:00,60.5,50.3,30.24,West,259,9.2,9.2,69,0.00,CLR,,0.00,WeatherDisplay:10.37,2013-03-11 01:03:00,
2013-03-10 18:08:00,60.0,50.2,30.24,West,268,10.4,10.4,70,0.00,CLR,,0.00,WeatherDisplay:10.37,2013-03-11 01:08:00,
2013-03-10 18:13:00,59.4,50.0,30.24,West,275,9.0,9.0,71,0.00,CLR,,0.00,WeatherDisplay:10.37,2013-03-11 01:13:00,
2013-03-10 18:18:00,59.0,50.0,30.24,West,270,9.2,9.2,72,0.00,CLR,,0.00,WeatherDisplay:10.37,2013-03-11 01:18:00,
2013-03-10 18:23:00,58.6,50.0,30.24,North,360,11.0,11.0,73,0.00,CLR,,0.00,WeatherDisplay:10.37,2013-03-11 01:23:00,
2013-03-10 18:28:00,57.9,49.7,30.24,North,360,11.5,11.5,74,0.00,CLR,,0.00,WeatherDisplay:10.37,2013-03-11 01:28:00,
2013-03-10 18:33:00,57.3,49.4,30.25,West,265,10.4,10.4,75,0.00,CLR,,0.00,WeatherDisplay:10.37,2013-03-11 01:33:00,
2013-03-10 18:38:00,56.9,49.4,30.25,West,275,11.5,11.5,76,0.00,CLR,,0.00,WeatherDisplay:10.37,2013-03-11 01:38:00,
2013-03-10 18:43:00,56.5,49.0,30.25,West,279,11.5,11.5,76,0.00,CLR,,0.00,WeatherDisplay:10.37,2013-03-11 01:43:00,
2013-03-10 18:48:00,56.0,48.9,30.25,NW,310,11.5,11.5,77,0.00,CLR,,0.00,WeatherDisplay:10.37,2013-03-11 01:48:00,
2013-03-10 18:53:00,55.5,48.8,30.25,WNW,294,10.4,10.4,78,0.00,CLR,,0.00,WeatherDisplay:10.37,2013-03-11 01:53:00,
2013-03-10 18:58:00,55.0,48.3,30.26,West,271,10.4,10.4,78,0.00,CLR,,0.00,WeatherDisplay:10.37,2013-03-11 01:58:00,
2013-03-10 19:03:00,54.5,48.1,30.26,North,360,11.5,11.5,79,0.00,CLR,,0.00,WeatherDisplay:10.37,2013-03-11 02:03:00,
2013-03-10 19:08:00,54.0,48.0,30.26,WNW,288,6.9,6.9,80,0.00,CLR,,0.00,WeatherDisplay:10.37,2013-03-11 02:08:00,
2013-03-10 19:13:00,53.5,47.8,30.26,WNW,292,15.0,15.0,81,0.00,CLR,,0.00,WeatherDisplay:10.37,2013-03-11 02:13:00,
2013-03-10 19:18:00,53.0,47.7,30.26,North,360,12.7,12.7,82,0.00,CLR,,0.00,WeatherDisplay:10.37,2013-03-11 02:18:00,
2013-03-10 19:23:00,52.6,47.6,30.26,West,277,10.4,10.4,83,0.00,CLR,,0.00,WeatherDisplay:10.37,2013-03-11 02:23:00,
2013-03-10 19:28:00,52.2,47.5,30.26,WNW,288,11.5,11.5,84,0.00,CLR,,0.00,WeatherDisplay:10.37,2013-03-11 02:28:00,
2013-03-10 19:33:00,51.7,47.3,30.26,West,260,4.6,4.6,85,0.00,CLR,,0.00,WeatherDisplay:10.37,2013-03-11 02:33:00,
2013-03-10 19:38:00,51.2,47.2,30.26,WNW,286,5.8,5.8,86,0.00,CLR,,0.00,WeatherDisplay:10.37,2013-03-11 02:38:00,
2013-03-10 19:43:00,50.9,46.9,30.26,West,259,6.9,6.9,86,0.00,CLR,,0.00,WeatherDisplay:10.37,2013-03-11 02:43:00,
2013-03-10 19:48:00,50.4,46.4,30.26,West,273,3.5,3.5,86,0.00,CLR,,0.00,WeatherDisplay:10.37,2013-03-11 02:48:00,
2013-03-10 19:53:00,49.9,46.2,30.26,West,273,0.0,0.0,87,0.00,CLR,,0.00,WeatherDisplay:10.37,2013-03-11 02:53:00,
2013-03-10 19:58:00,49.7,46.3,30.26,West,273,2.3,2.3,88,0.00,CLR,,0.00,WeatherDisplay:10.37,2013-03-11 02:58:00,
2013-03-10 20:03:00,49.6,46.5,30.27,West,273,3.5,3.5,89,0.00,CLR,,0.00,WeatherDisplay:10.37,2013-03-11 03:03:00,
2013-03-10 20:08:00,49.3,46.2,30.27,WSW,238,3.5,3.5,89,0.00,CLR,,0.00,WeatherDisplay:10.37,2013-03-11 03:08:00,
2013-03-10 20:13:00,49.1,46.0,30.27,WSW,249,4.6,4.6,89,0.00,CLR,,0.00,WeatherDisplay:10.37,2013-03-11 03:13:00,
2013-03-10 20:18:00,48.9,45.8,30.27,WSW,248,1.1,1.1,89,0.00,CLR,,0.00,WeatherDisplay:10.37,2013-03-11 03:18:00,
2013-03-10 20:23:00,48.7,45.9,30.26,WSW,248,2.3,2.3,90,0.00,CLR,,0.00,WeatherDisplay:10.37,2013-03-11 03:23:00,
2013-03-10 20:28:00,48.6,45.8,30.26,WSW,248,2.3,2.3,90,0.00,CLR,,0.00,WeatherDisplay:10.37,2013-03-11 03:28:00,
2013-03-10 20:33:00,48.2,45.4,30.26,WSW,248,3.5,3.5,90,0.00,CLR,,0.00,WeatherDisplay:10.37,2013-03-11 03:33:00,
2013-03-10 20:38:00,47.8,45.0,30.26,WSW,248,3.5,3.5,90,0.00,CLR,,0.00,WeatherDisplay:10.37,2013-03-11 03:38:00,
2013-03-10 20:43:00,47.7,45.2,30.26,WSW,250,6.0,6.0,91,0.00,CLR,,0.00,WeatherDisplay:10.37,2013-03-11 03:43:00,
2013-03-10 20:48:00,47.5,45.0,30.26,West,265,6.9,6.9,91,0.00,CLR,,0.00,WeatherDisplay:10.37,2013-03-11 03:48:00,
2013-03-10 20:53:00,47.4,44.9,30.26,West,260,3.5,3.5,91,0.00,CLR,,0.00,WeatherDisplay:10.37,2013-03-11 03:53:00,
2013-03-10 20:58:00,47.3,44.8,30.26,West,259,3.5,0.0,91,0.00,CLR,,0.00,WeatherDisplay:10.37,2013-03-11 03:58:00,
2013-03-10 21:00:00,47.3,45.1,30.27,West,259,0.0,6.0,92,0.00,CLR,,0.00,WeatherDisplay:10.37,2013-03-11 04:00:00,
2013-03-10 21:05:00,47.0,44.8,30.27,West,259,3.5,3.5,92,0.00,CLR,,0.00,WeatherDisplay:10.37,2013-03-11 04:05:00,
2013-03-10 21:10:00,47.2,45.0,30.27,West,259,0.0,0.0,92,0.00,CLR,,0.00,WeatherDisplay:10.37,2013-03-11 04:10:00,
2013-03-10 21:15:00,46.9,44.7,30.27,West,259,3.5,3.5,92,0.00,CLR,,0.00,WeatherDisplay:10.37,2013-03-11 04:15:00,
2013-03-10 21:20:00,46.5,44.3,30.27,West,259,3.0,3.0,92,0.00,CLR,,0.00,WeatherDisplay:10.37,2013-03-11 04:20:00,
2013-03-10 21:25:00,46.3,44.1,30.27,West,259,3.5,3.5,92,0.00,CLR,,0.00,WeatherDisplay:10.37,2013-03-11 04:25:00,
2013-03-10 21:30:00,46.1,43.9,30.26,West,259,2.3,2.3,92,0.00,CLR,,0.00,WeatherDisplay:10.37,2013-03-11 04:30:00,
2013-03-10 21:35:00,46.2,44.3,30.26,WSW,256,3.5,3.5,93,0.00,CLR,,0.00,WeatherDisplay:10.37,2013-03-11 04:35:00,
2013-03-10 21:40:00,46.2,44.3,30.27,WSW,253,3.5,3.5,93,0.00,CLR,,0.00,WeatherDisplay:10.37,2013-03-11 04:40:00,
2013-03-10 21:45:00,46.3,44.4,30.26,WSW,253,3.5,3.5,93,0.00,CLR,,0.00,WeatherDisplay:10.37,2013-03-11 04:45:00,
2013-03-10 21:50:00,45.8,43.9,30.27,WSW,253,0.0,0.0,93,0.00,CLR,,0.00,WeatherDisplay:10.37,2013-03-11 04:50:00,
2013-03-10 21:55:00,45.6,43.7,30.27,WSW,253,1.1,1.1,93,0.00,CLR,,0.00,WeatherDisplay:10.37,2013-03-11 04:55:00,
2013-03-10 22:00:00,45.3,43.4,30.27,WSW,253,3.5,3.5,93,0.00,CLR,,0.00,WeatherDisplay:10.37,2013-03-11 05:00:00,
2013-03-10 22:05:00,45.4,43.5,30.26,WSW,253,1.1,1.1,93,0.00,CLR,,0.00,WeatherDisplay:10.37,2013-03-11 05:05:00,
2013-03-10 22:10:00,45.7,44.1,30.26,WSW,253,3.5,3.5,94,0.00,CLR,,0.00,WeatherDisplay:10.37,2013-03-11 05:10:00,
2013-03-10 22:15:00,45.8,44.2,30.26,WSW,253,3.5,3.5,94,0.00,CLR,,0.00,WeatherDisplay:10.37,2013-03-11 05:15:00,
2013-03-10 22:20:00,45.7,44.1,30.26,WSW,253,4.0,4.0,94,0.00,CLR,,0.00,WeatherDisplay:10.37,2013-03-11 05:20:00,
2013-03-10 22:25:00,45.7,44.1,30.26,West,261,4.6,4.6,94,0.00,CLR,,0.00,WeatherDisplay:10.37,2013-03-11 05:25:00,
2013-03-10 22:30:00,45.7,44.1,30.26,WSW,251,4.6,4.6,94,0.00,CLR,,0.00,WeatherDisplay:10.37,2013-03-11 05:30:00,
2013-03-10 22:35:00,45.6,44.0,30.26,WSW,253,3.5,3.5,94,0.00,CLR,,0.00,WeatherDisplay:10.37,2013-03-11 05:35:00,
2013-03-10 22:40:00,45.3,43.7,30.26,WSW,253,1.1,1.1,94,0.00,CLR,,0.00,WeatherDisplay:10.37,2013-03-11 05:40:00,
2013-03-10 22:45:00,45.5,43.9,30.26,WSW,253,0.0,0.0,94,0.00,CLR,,0.00,WeatherDisplay:10.37,2013-03-11 05:45:00,
2013-03-10 22:50:00,45.7,44.4,30.26,WSW,253,0.0,0.0,95,0.00,CLR,,0.00,WeatherDisplay:10.37,2013-03-11 05:50:00,
2013-03-10 22:55:00,45.8,44.2,30.26,WSW,253,2.3,2.3,94,0.00,CLR,,0.00,WeatherDisplay:10.37,2013-03-11 05:55:00,
2013-03-10 23:00:00,45.8,44.2,30.26,WSW,253,2.0,2.0,94,0.00,CLR,,0.00,WeatherDisplay:10.37,2013-03-11 06:00:00,
2013-03-10 23:05:00,45.9,44.5,30.26,WSW,253,0.0,0.0,95,0.00,CLR,,0.00,WeatherDisplay:10.37,2013-03-11 06:05:00,
2013-03-10 23:10:00,45.9,44.5,30.26,WSW,253,1.1,0.0,95,0.00,CLR,,0.00,WeatherDisplay:10.37,2013-03-11 06:10:00,
2013-03-10 23:15:00,45.9,44.5,30.26,WSW,253,0.0,0.0,95,0.00,CLR,,0.00,WeatherDisplay:10.37,2013-03-11 06:15:00,
2013-03-10 23:20:00,45.9,44.5,30.25,WSW,253,3.5,3.5,95,0.00,CLR,,0.00,WeatherDisplay:10.37,2013-03-11 06:20:00,
2013-03-10 23:25:00,45.8,44.4,30.25,WSW,253,1.0,1.0,95,0.00,CLR,,0.00,WeatherDisplay:10.37,2013-03-11 06:25:00,
2013-03-10 23:30:00,45.8,44.4,30.25,WSW,253,1.1,1.1,95,0.00,CLR,,0.00,WeatherDisplay:10.37,2013-03-11 06:30:00,
2013-03-10 23:35:00,45.7,44.4,30.25,WSW,253,0.0,0.0,95,0.00,CLR,,0.00,WeatherDisplay:10.37,2013-03-11 06:35:00,
2013-03-10 23:40:00,45.6,44.3,30.25,WSW,253,3.5,3.5,95,0.00,CLR,,0.00,WeatherDisplay:10.37,2013-03-11 06:40:00,
2013-03-10 23:45:00,45.7,44.4,30.25,WSW,253,1.1,1.1,95,0.00,CLR,,0.00,WeatherDisplay:10.37,2013-03-11 06:45:00,
2013-03-10 23:50:00,45.7,44.4,30.25,WSW,253,2.3,0.0,95,0.00,CLR,,0.00,WeatherDisplay:10.37,2013-03-11 06:50:00,
2013-03-10 23:55:00,45.4,44.1,30.25,WSW,253,2.3,2.3,95,0.00,CLR,,0.00,WeatherDisplay:10.37,2013-03-11 06:55:00,